COSMOS 1275 DEB, 13813

Orbit data source: Space-Track

COSMOS 1275 DEB, 13813 is space debris in LEO originally from a launch on Thu, 04 Jun 1981 UTC launched from the Plesetsk Missile And Space Complex (PKMTR). Debris objects in space refer to the collection of defunct objects orbiting the Earth. Examples of debris include non-operational satellites, rocket bodies, and fragments generated from explosions, collisions, or faulty payload assembly.

Loading next visibility...
Identifier
13813, 1981-053HH
Orbit
LEO
Country
Flag of CISCIS
Related business
Manufacturer
Unknown
Mission
Spacecraft
Bus & Motor
Unknown
Mass
Unknown
Launch date (UTC)
1981-06-04 (44 years ago)
Launch vehicle
Unknown
Launch site
Plesetsk Missile And Space Complex (PKMTR)
Object type
Payload
Rocket body
Debris
Shape & HBR
Unknown shape, 0.1 m
Radar Cross Section
Small (<0.1 m²)

Expand to show TLE details & history
Last TLE update: 9 hours ago

TLE from 9 hours ago
0 COSMOS 1275 DEB
1 13813U 81053HH  25286.83483019  .00004163  00000-0  21468-2 0  9999
2 13813  82.9350  68.4557 0042390 123.9737  28.2550 14.14450135179018
Epoch: 2025-10-13T20:02Z
TLE epoch observation values (Epoch: 2025-10-13T20:02:09.328Z)
Latitude
27.3534°
Longitude
-78.37159°
Altitude
820.624 km
Speed
7.459 km/s
True Right ascension
16h 19m 11s
True Declination
27° 12' 52"
Sunlit
Object was in daylight at epoch
Visualization orbit readout
Latitude
Unknown
Longitude
Unknown
Altitude
Unknown
Speed
Unknown
Apparent Right ascension
Unknown
Apparent Declination
Unknown
Sunlit
N/A
Visualization observer readout
Local Sidereal Time
23:46:24
Azimuth
Unknown
Elevation
Unknown
Doppler factor
Unknown
Orbital elements
Apogee altitude
871.881 km
Perigee altitude
810.675 km
Semi-major axis
7,219.415 km
Eccentricity
0.00424
Inclination
82.935°
RAAN
68.4557°
Arg. of periapsis
123.9737°
True anomaly
28.48603°
Mean anomaly
28.255°
Eccentric anomaly
28.37041°
Mean motion
3.53826 °/min
Orbital period
101.74 mins
BSTAR
0.0021468
Loading maneuver chart data...
Computing Atmospheric mass density...
Loading historical data...
Loading historical data...
Loading historical data...
Loading historical data...
Loading historical data...
Loading historical data...
Loading historical data...

Documentation

Showing up to 5 results
|